Year,Month,Day,Hour,Minute,Value (Times are PST for temperature in C)
2019,10,29,00,00,3.40
2019,10,29,00,01,3.40
2019,10,29,00,02,3.40
2019,10,29,00,03,3.40
2019,10,29,00,04,3.40
2019,10,29,00,05,3.40
2019,10,29,00,06,3.40
2019,10,29,00,07,3.40
2019,10,29,00,08,3.50
2019,10,29,00,09,3.60
2019,10,29,00,10,3.60
2019,10,29,00,11,3.60
2019,10,29,00,12,3.60
2019,10,29,00,13,3.60
2019,10,29,00,14,3.60
2019,10,29,00,15,3.60
2019,10,29,00,16,3.60
2019,10,29,00,17,3.50
2019,10,29,00,18,3.50
2019,10,29,00,19,3.50
2019,10,29,00,20,3.50
2019,10,29,00,21,3.50
2019,10,29,00,22,3.50
2019,10,29,00,23,3.50
2019,10,29,00,24,3.50
2019,10,29,00,25,3.50
2019,10,29,00,26,3.50
2019,10,29,00,27,3.40
2019,10,29,00,28,3.40
2019,10,29,00,29,3.40
2019,10,29,00,30,3.40
2019,10,29,00,31,3.40
2019,10,29,00,32,3.40
2019,10,29,00,33,3.30
2019,10,29,00,34,3.30
2019,10,29,00,35,3.30
2019,10,29,00,36,3.30
2019,10,29,00,37,3.30
2019,10,29,00,38,3.30
2019,10,29,00,39,3.30
2019,10,29,00,40,3.20
2019,10,29,00,41,3.20
2019,10,29,00,42,3.20
2019,10,29,00,43,3.20
2019,10,29,00,44,3.20
2019,10,29,00,45,3.20
2019,10,29,00,46,3.10
2019,10,29,00,47,3.10
2019,10,29,00,48,3.10
2019,10,29,00,49,3.10
2019,10,29,00,50,3.10
2019,10,29,00,51,3.10
2019,10,29,00,52,3.10
2019,10,29,00,53,3.10
2019,10,29,00,54,3.10
2019,10,29,00,55,3.10
2019,10,29,00,56,3.10
2019,10,29,00,57,3.10
2019,10,29,00,58,3.10
2019,10,29,00,59,3.00
2019,10,29,01,00,3.10
2019,10,29,01,01,3.10
2019,10,29,01,02,3.10
2019,10,29,01,03,3.10
2019,10,29,01,04,3.10
2019,10,29,01,05,3.10
2019,10,29,01,06,3.10
2019,10,29,01,07,3.10
2019,10,29,01,08,3.10
2019,10,29,01,09,3.10
2019,10,29,01,10,3.10
2019,10,29,01,11,3.10
2019,10,29,01,12,3.10
2019,10,29,01,13,3.10
2019,10,29,01,14,3.10
2019,10,29,01,15,3.10
2019,10,29,01,16,3.00
2019,10,29,01,17,3.00
2019,10,29,01,18,3.00
2019,10,29,01,19,2.90
2019,10,29,01,20,2.90
2019,10,29,01,21,2.90
2019,10,29,01,22,2.90
2019,10,29,01,23,2.90
2019,10,29,01,24,2.90
2019,10,29,01,25,2.90
2019,10,29,01,26,2.90
2019,10,29,01,27,2.90
2019,10,29,01,28,2.90
2019,10,29,01,29,2.90
2019,10,29,01,30,2.80
2019,10,29,01,31,2.80
2019,10,29,01,32,2.80
2019,10,29,01,33,2.80
2019,10,29,01,34,2.80
2019,10,29,01,35,2.80
2019,10,29,01,36,2.80
2019,10,29,01,37,2.80
2019,10,29,01,38,2.80
2019,10,29,01,39,2.80
2019,10,29,01,40,2.80
2019,10,29,01,41,2.80
2019,10,29,01,42,2.80
2019,10,29,01,43,2.80
2019,10,29,01,44,2.80
2019,10,29,01,45,2.80
2019,10,29,01,46,2.80
2019,10,29,01,47,2.80
2019,10,29,01,48,2.80
2019,10,29,01,49,2.80
2019,10,29,01,50,2.80
2019,10,29,01,51,2.80
2019,10,29,01,52,2.70
2019,10,29,01,53,2.70
2019,10,29,01,54,2.70
2019,10,29,01,55,2.70
2019,10,29,01,56,2.70
2019,10,29,01,57,2.70
2019,10,29,01,58,2.70
2019,10,29,01,59,2.60
2019,10,29,02,00,2.60
2019,10,29,02,01,2.60
2019,10,29,02,02,2.60
2019,10,29,02,03,2.60
2019,10,29,02,04,2.60
2019,10,29,02,05,2.60
2019,10,29,02,06,2.50
2019,10,29,02,07,2.50
2019,10,29,02,08,2.50
2019,10,29,02,09,2.50
2019,10,29,02,10,2.50
2019,10,29,02,11,2.40
2019,10,29,02,12,2.40
2019,10,29,02,13,2.40
2019,10,29,02,14,2.40
2019,10,29,02,15,2.40
2019,10,29,02,16,2.40
2019,10,29,02,17,2.40
2019,10,29,02,18,2.40
2019,10,29,02,19,2.40
2019,10,29,02,20,2.40
2019,10,29,02,21,2.40
2019,10,29,02,22,2.40
2019,10,29,02,23,2.40
2019,10,29,02,24,2.40
2019,10,29,02,25,2.40
2019,10,29,02,26,2.40
2019,10,29,02,27,2.50
2019,10,29,02,28,2.50
2019,10,29,02,29,2.50
2019,10,29,02,30,2.50
2019,10,29,02,31,2.50
2019,10,29,02,32,2.50
2019,10,29,02,33,2.50
2019,10,29,02,34,2.50
2019,10,29,02,35,2.50
2019,10,29,02,36,2.50
2019,10,29,02,37,2.50
2019,10,29,02,38,2.60
2019,10,29,02,39,2.60
2019,10,29,02,40,2.50
2019,10,29,02,41,2.50
2019,10,29,02,42,2.50
2019,10,29,02,43,2.50
2019,10,29,02,44,2.50
2019,10,29,02,45,2.50
2019,10,29,02,46,2.50
2019,10,29,02,47,2.50
2019,10,29,02,48,2.50
2019,10,29,02,49,2.50
2019,10,29,02,50,2.50
2019,10,29,02,51,2.50
2019,10,29,02,52,2.50
2019,10,29,02,53,2.50
2019,10,29,02,54,2.50
2019,10,29,02,55,2.60
2019,10,29,02,56,2.60
2019,10,29,02,57,2.60
2019,10,29,02,58,2.60
2019,10,29,02,59,2.60
2019,10,29,03,00,2.60
2019,10,29,03,01,2.60
2019,10,29,03,02,2.60
2019,10,29,03,03,2.70
2019,10,29,03,04,2.70
2019,10,29,03,05,2.70
2019,10,29,03,06,2.70
2019,10,29,03,07,2.70
2019,10,29,03,08,2.70
2019,10,29,03,09,2.70
2019,10,29,03,10,2.70
2019,10,29,03,11,2.70
2019,10,29,03,12,2.70
2019,10,29,03,13,2.70
2019,10,29,03,14,2.60
2019,10,29,03,15,2.60
2019,10,29,03,16,2.60
2019,10,29,03,17,2.60
2019,10,29,03,18,2.60
2019,10,29,03,19,2.60
2019,10,29,03,20,2.60
2019,10,29,03,21,2.60
2019,10,29,03,22,2.60
2019,10,29,03,23,2.60
2019,10,29,03,24,2.60
2019,10,29,03,25,2.60
2019,10,29,03,26,2.60
2019,10,29,03,27,2.60
2019,10,29,03,28,2.60
2019,10,29,03,29,2.60
2019,10,29,03,30,2.60
2019,10,29,03,31,2.60
2019,10,29,03,32,2.60
2019,10,29,03,33,2.60
2019,10,29,03,34,2.60
2019,10,29,03,35,2.60
2019,10,29,03,36,2.60
2019,10,29,03,37,2.60
2019,10,29,03,38,2.60
2019,10,29,03,39,2.60
2019,10,29,03,40,2.60
2019,10,29,03,41,2.60
2019,10,29,03,42,2.60
2019,10,29,03,43,2.60
2019,10,29,03,44,2.60
2019,10,29,03,45,2.60
2019,10,29,03,46,2.60
2019,10,29,03,47,2.60
2019,10,29,03,48,2.60
2019,10,29,03,49,2.60
2019,10,29,03,50,2.60
2019,10,29,03,51,2.60
2019,10,29,03,52,2.60
2019,10,29,03,53,2.60
2019,10,29,03,54,2.60
2019,10,29,03,55,2.70
2019,10,29,03,56,2.60
2019,10,29,03,57,2.60
2019,10,29,03,58,2.60
2019,10,29,03,59,2.60
2019,10,29,04,00,2.60
2019,10,29,04,01,2.60
2019,10,29,04,02,2.60
2019,10,29,04,03,2.60
2019,10,29,04,04,2.60
2019,10,29,04,05,2.60
2019,10,29,04,06,2.60
2019,10,29,04,07,2.60
2019,10,29,04,08,2.60
2019,10,29,04,09,2.50
2019,10,29,04,10,2.50
2019,10,29,04,11,2.40
2019,10,29,04,12,2.40
2019,10,29,04,13,2.40
2019,10,29,04,14,2.40
2019,10,29,04,15,2.40
2019,10,29,04,16,2.40
2019,10,29,04,17,2.40
2019,10,29,04,18,2.40
2019,10,29,04,19,2.40
2019,10,29,04,20,2.40
2019,10,29,04,21,2.40
2019,10,29,04,22,2.40
2019,10,29,04,23,2.40
2019,10,29,04,24,2.40
2019,10,29,04,25,2.40
2019,10,29,04,26,2.40
2019,10,29,04,27,2.40
2019,10,29,04,28,2.40
2019,10,29,04,29,2.40
2019,10,29,04,30,2.40
2019,10,29,04,31,2.40
2019,10,29,04,32,2.50
2019,10,29,04,33,2.60
2019,10,29,04,34,2.60
2019,10,29,04,35,2.70
2019,10,29,04,36,2.70
2019,10,29,04,37,2.70
2019,10,29,04,38,2.80
2019,10,29,04,39,2.80
2019,10,29,04,40,2.90
2019,10,29,04,41,2.90
2019,10,29,04,42,2.90
2019,10,29,04,43,2.80
2019,10,29,04,44,2.80
2019,10,29,04,45,2.70
2019,10,29,04,46,2.70
2019,10,29,04,47,2.60
2019,10,29,04,48,2.60
2019,10,29,04,49,2.50
2019,10,29,04,50,2.40
2019,10,29,04,51,2.40
2019,10,29,04,52,2.40
2019,10,29,04,53,2.30
2019,10,29,04,54,2.30
2019,10,29,04,55,2.30
2019,10,29,04,56,2.30
2019,10,29,04,57,2.30
2019,10,29,04,58,2.30
2019,10,29,04,59,2.30
2019,10,29,05,00,2.30
2019,10,29,05,01,2.30
2019,10,29,05,02,2.30
2019,10,29,05,03,2.30
2019,10,29,05,04,2.30
2019,10,29,05,05,2.30
2019,10,29,05,06,2.30
2019,10,29,05,07,2.30
2019,10,29,05,08,2.30
2019,10,29,05,09,2.30
2019,10,29,05,10,2.30
2019,10,29,05,11,2.30
2019,10,29,05,12,2.30
2019,10,29,05,13,2.30
2019,10,29,05,14,2.30
2019,10,29,05,15,2.30
2019,10,29,05,16,2.30
2019,10,29,05,17,2.30
2019,10,29,05,18,2.30
2019,10,29,05,19,2.30
2019,10,29,05,20,2.30
2019,10,29,05,21,2.30
2019,10,29,05,22,2.30
2019,10,29,05,23,2.30
2019,10,29,05,24,2.30
2019,10,29,05,25,2.30
2019,10,29,05,26,2.30
2019,10,29,05,27,2.30
2019,10,29,05,28,2.30
2019,10,29,05,29,2.30
2019,10,29,05,30,2.30
2019,10,29,05,31,2.20
2019,10,29,05,32,2.20
2019,10,29,05,33,2.20
2019,10,29,05,34,2.20
2019,10,29,05,35,2.20
2019,10,29,05,36,2.20
2019,10,29,05,37,2.20
2019,10,29,05,38,2.20
2019,10,29,05,39,2.20
2019,10,29,05,40,2.20
2019,10,29,05,41,2.20
2019,10,29,05,42,2.10
2019,10,29,05,43,2.10
2019,10,29,05,44,2.10
2019,10,29,05,45,2.10
2019,10,29,05,46,2.10
2019,10,29,05,47,2.10
2019,10,29,05,48,2.10
2019,10,29,05,49,2.10
2019,10,29,05,50,2.10
2019,10,29,05,51,2.10
2019,10,29,05,52,2.10
2019,10,29,05,53,2.10
2019,10,29,05,54,2.10
2019,10,29,05,55,2.10
2019,10,29,05,56,2.10
2019,10,29,05,57,2.10
2019,10,29,05,58,2.20
2019,10,29,05,59,2.20
2019,10,29,06,00,2.20
2019,10,29,06,01,2.20
2019,10,29,06,02,2.20
2019,10,29,06,03,2.20
2019,10,29,06,04,2.20
2019,10,29,06,05,2.20
2019,10,29,06,06,2.10
2019,10,29,06,07,2.10
2019,10,29,06,08,2.10
2019,10,29,06,09,2.10
2019,10,29,06,10,2.10
2019,10,29,06,11,2.10
2019,10,29,06,12,2.10
2019,10,29,06,13,2.10
2019,10,29,06,14,2.10
2019,10,29,06,15,2.10
2019,10,29,06,16,2.10
2019,10,29,06,17,2.10
2019,10,29,06,18,2.10
2019,10,29,06,19,2.10
2019,10,29,06,20,2.10
2019,10,29,06,21,2.10
2019,10,29,06,22,2.10
2019,10,29,06,23,2.10
2019,10,29,06,24,2.10
2019,10,29,06,25,2.10
2019,10,29,06,26,2.10
2019,10,29,06,27,2.10
2019,10,29,06,28,2.10
2019,10,29,06,29,2.10
2019,10,29,06,30,2.10
2019,10,29,06,31,2.10
2019,10,29,06,32,2.10
2019,10,29,06,33,2.10
2019,10,29,06,34,2.10
2019,10,29,06,35,2.10
2019,10,29,06,36,2.10
2019,10,29,06,37,2.00
2019,10,29,06,38,2.00
2019,10,29,06,39,2.00
2019,10,29,06,40,1.90
2019,10,29,06,41,1.90
2019,10,29,06,42,1.90
2019,10,29,06,43,1.90
2019,10,29,06,44,1.90
2019,10,29,06,45,1.90
2019,10,29,06,46,1.90
2019,10,29,06,47,1.80
2019,10,29,06,48,1.80
2019,10,29,06,49,1.80
2019,10,29,06,50,1.80
2019,10,29,06,51,1.80
2019,10,29,06,52,1.80
2019,10,29,06,53,1.70
2019,10,29,06,54,1.70
2019,10,29,06,55,1.70
2019,10,29,06,56,1.70
2019,10,29,06,57,1.70
2019,10,29,06,58,1.70
2019,10,29,06,59,1.60
2019,10,29,07,00,1.60
2019,10,29,07,01,1.60
2019,10,29,07,02,1.60
2019,10,29,07,03,1.60
2019,10,29,07,04,1.60
2019,10,29,07,05,1.60
2019,10,29,07,06,1.60
2019,10,29,07,07,1.70
2019,10,29,07,08,1.70
2019,10,29,07,09,1.70
2019,10,29,07,10,1.70
2019,10,29,07,11,1.70
2019,10,29,07,12,1.70
2019,10,29,07,13,1.70
2019,10,29,07,14,1.80
2019,10,29,07,15,1.80
2019,10,29,07,16,1.80
2019,10,29,07,17,1.80
2019,10,29,07,18,1.80
2019,10,29,07,19,1.80
2019,10,29,07,20,1.80
2019,10,29,07,21,1.80
2019,10,29,07,22,1.80
2019,10,29,07,23,1.80
2019,10,29,07,24,1.80
2019,10,29,07,25,1.80
2019,10,29,07,26,1.80
2019,10,29,07,27,1.80
2019,10,29,07,28,1.80
2019,10,29,07,29,1.80
2019,10,29,07,30,1.80
2019,10,29,07,31,1.80
2019,10,29,07,32,1.80
2019,10,29,07,33,1.80
2019,10,29,07,34,1.80
2019,10,29,07,35,1.80
2019,10,29,07,36,1.80
2019,10,29,07,37,1.80
2019,10,29,07,38,1.80
2019,10,29,07,39,1.80
2019,10,29,07,40,1.80
2019,10,29,07,41,1.80
2019,10,29,07,42,1.80
2019,10,29,07,43,1.80
2019,10,29,07,44,1.80
2019,10,29,07,45,1.80
2019,10,29,07,46,1.80
2019,10,29,07,47,1.80
2019,10,29,07,48,1.80
2019,10,29,07,49,1.80
2019,10,29,07,50,1.80
2019,10,29,07,51,1.80
2019,10,29,07,52,1.80
2019,10,29,07,53,1.80
2019,10,29,07,54,1.80
2019,10,29,07,55,1.80
2019,10,29,07,56,1.80
2019,10,29,07,57,1.80
2019,10,29,07,58,1.80
2019,10,29,07,59,1.80
2019,10,29,08,00,1.80
2019,10,29,08,01,1.80
2019,10,29,08,02,1.80
2019,10,29,08,03,1.80
2019,10,29,08,04,1.80
2019,10,29,08,05,1.80
2019,10,29,08,06,1.80
2019,10,29,08,07,1.80
2019,10,29,08,08,1.80
2019,10,29,08,09,1.80
2019,10,29,08,10,1.80
2019,10,29,08,11,1.80
2019,10,29,08,12,1.80
2019,10,29,08,13,1.80
2019,10,29,08,14,1.80
2019,10,29,08,15,1.80
2019,10,29,08,16,1.80
2019,10,29,08,17,1.80
2019,10,29,08,18,1.80
2019,10,29,08,19,1.70
2019,10,29,08,20,1.70
2019,10,29,08,21,1.70
2019,10,29,08,22,1.70
2019,10,29,08,23,1.70
2019,10,29,08,24,1.70
2019,10,29,08,25,1.70
2019,10,29,08,26,1.80
2019,10,29,08,27,1.80
2019,10,29,08,28,1.80
2019,10,29,08,29,1.80
2019,10,29,08,30,1.80
2019,10,29,08,31,1.80
2019,10,29,08,32,1.80
2019,10,29,08,33,1.70
2019,10,29,08,34,1.80
2019,10,29,08,35,1.70
2019,10,29,08,36,1.80
2019,10,29,08,37,1.80
2019,10,29,08,38,1.80
2019,10,29,08,39,1.80
2019,10,29,08,40,1.90
2019,10,29,08,41,1.90
2019,10,29,08,42,1.90
2019,10,29,08,43,2.00
2019,10,29,08,44,2.00
2019,10,29,08,45,2.00
2019,10,29,08,46,2.00
2019,10,29,08,47,2.00
2019,10,29,08,48,2.00
2019,10,29,08,49,2.00
2019,10,29,08,50,2.00
2019,10,29,08,51,2.00
2019,10,29,08,52,2.00
2019,10,29,08,53,2.00
2019,10,29,08,54,2.00
2019,10,29,08,55,2.00
2019,10,29,08,56,2.10
2019,10,29,08,57,2.10
2019,10,29,08,58,2.10
2019,10,29,08,59,2.10
2019,10,29,09,00,2.10
2019,10,29,09,01,2.10
2019,10,29,09,02,2.10
2019,10,29,09,03,2.10
2019,10,29,09,04,2.10
2019,10,29,09,05,2.10
2019,10,29,09,06,2.20
2019,10,29,09,07,2.20
2019,10,29,09,08,2.20
2019,10,29,09,09,2.30
2019,10,29,09,10,2.30
2019,10,29,09,11,2.30
2019,10,29,09,12,2.30
2019,10,29,09,13,2.30
2019,10,29,09,14,2.30
2019,10,29,09,15,2.30
2019,10,29,09,16,2.30
2019,10,29,09,17,2.30
2019,10,29,09,18,2.30
2019,10,29,09,19,2.30
2019,10,29,09,20,2.30
2019,10,29,09,21,2.30
2019,10,29,09,22,2.30
2019,10,29,09,23,2.30
2019,10,29,09,24,2.30
2019,10,29,09,25,2.30
2019,10,29,09,26,2.20
2019,10,29,09,27,2.20
2019,10,29,09,28,2.20
2019,10,29,09,29,2.20
2019,10,29,09,30,2.30
2019,10,29,09,31,2.30
2019,10,29,09,32,2.30
2019,10,29,09,33,2.30
2019,10,29,09,34,2.30
2019,10,29,09,35,2.40
2019,10,29,09,36,2.40
2019,10,29,09,37,2.40
2019,10,29,09,38,2.40
2019,10,29,09,39,2.40
2019,10,29,09,40,2.40
2019,10,29,09,41,2.40
2019,10,29,09,42,2.40
2019,10,29,09,43,2.40
2019,10,29,09,44,2.40
2019,10,29,09,45,2.40
2019,10,29,09,46,2.30
2019,10,29,09,47,2.30
2019,10,29,09,48,2.30
2019,10,29,09,49,2.30
2019,10,29,09,50,2.30
2019,10,29,09,51,2.30
2019,10,29,09,52,2.30
2019,10,29,09,53,2.30
2019,10,29,09,54,2.30
2019,10,29,09,55,2.30
2019,10,29,09,56,2.20
2019,10,29,09,57,2.20
2019,10,29,09,58,2.20
2019,10,29,09,59,2.10
2019,10,29,10,00,2.10
2019,10,29,10,01,2.10
2019,10,29,10,02,2.10
2019,10,29,10,03,2.10
2019,10,29,10,04,2.20
2019,10,29,10,05,2.20
2019,10,29,10,06,2.20
2019,10,29,10,07,2.20
2019,10,29,10,08,2.20
2019,10,29,10,09,2.30
2019,10,29,10,10,2.30
2019,10,29,10,11,2.30
2019,10,29,10,12,2.30
2019,10,29,10,13,2.30
2019,10,29,10,14,2.30
2019,10,29,10,15,2.20
2019,10,29,10,16,2.20
2019,10,29,10,17,2.20
2019,10,29,10,18,2.20
2019,10,29,10,19,2.10
2019,10,29,10,20,2.10
2019,10,29,10,21,2.10
2019,10,29,10,22,2.10
2019,10,29,10,23,2.00
2019,10,29,10,24,2.00
2019,10,29,10,25,2.00
2019,10,29,10,26,1.90
2019,10,29,10,27,2.00
2019,10,29,10,28,2.00
2019,10,29,10,29,2.00
2019,10,29,10,30,2.00
2019,10,29,10,31,2.10
2019,10,29,10,32,2.10
2019,10,29,10,33,2.10
2019,10,29,10,34,2.10
2019,10,29,10,35,2.10
2019,10,29,10,36,2.20
2019,10,29,10,37,2.20
2019,10,29,10,38,2.20
2019,10,29,10,39,2.20
2019,10,29,10,40,2.30
2019,10,29,10,41,2.30
2019,10,29,10,42,2.30
2019,10,29,10,43,2.30
2019,10,29,10,44,2.20
2019,10,29,10,45,2.20
2019,10,29,10,46,2.30
2019,10,29,10,47,2.30
2019,10,29,10,48,2.30
2019,10,29,10,49,2.30
2019,10,29,10,50,2.40
2019,10,29,10,51,2.40
2019,10,29,10,52,2.50
2019,10,29,10,53,2.60
2019,10,29,10,54,2.70
2019,10,29,10,55,2.80
2019,10,29,10,56,2.80
2019,10,29,10,57,2.90
2019,10,29,10,58,2.80
2019,10,29,10,59,2.90
2019,10,29,11,00,2.90
2019,10,29,11,01,2.90
2019,10,29,11,02,2.90
2019,10,29,11,03,2.90
2019,10,29,11,04,2.90
2019,10,29,11,05,2.90
2019,10,29,11,06,2.90
2019,10,29,11,07,2.90
2019,10,29,11,08,2.90
2019,10,29,11,09,2.90
2019,10,29,11,10,2.90
2019,10,29,11,11,2.90
2019,10,29,11,12,2.90
2019,10,29,11,13,2.90
2019,10,29,11,14,3.00
2019,10,29,11,15,3.10
2019,10,29,11,16,3.10
2019,10,29,11,17,3.10
2019,10,29,11,18,3.10
2019,10,29,11,19,3.10
2019,10,29,11,20,3.10
2019,10,29,11,21,3.10
2019,10,29,11,22,3.20
2019,10,29,11,23,3.20
2019,10,29,11,24,3.20
2019,10,29,11,25,3.20
2019,10,29,11,26,3.20
2019,10,29,11,27,3.20
2019,10,29,11,28,3.20
2019,10,29,11,29,3.20
2019,10,29,11,30,3.20
2019,10,29,11,31,3.20
2019,10,29,11,32,3.20
2019,10,29,11,33,3.20
2019,10,29,11,34,3.20
2019,10,29,11,35,3.20
2019,10,29,11,36,3.20
2019,10,29,11,37,3.20
2019,10,29,11,38,3.30
2019,10,29,11,39,3.30
2019,10,29,11,40,3.30
2019,10,29,11,41,3.30
2019,10,29,11,42,3.30
2019,10,29,11,43,3.30
2019,10,29,11,44,3.30
2019,10,29,11,45,3.30
2019,10,29,11,46,3.30
2019,10,29,11,47,3.30
2019,10,29,11,48,3.40
2019,10,29,11,49,3.50
2019,10,29,11,50,3.50
2019,10,29,11,51,3.60
2019,10,29,11,52,3.60
2019,10,29,11,53,3.60
2019,10,29,11,54,3.70
2019,10,29,11,55,3.80
2019,10,29,11,56,3.80
2019,10,29,11,57,3.90
2019,10,29,11,58,3.90
2019,10,29,11,59,3.80
2019,10,29,12,00,3.80
2019,10,29,12,01,3.80
2019,10,29,12,02,3.80
2019,10,29,12,03,3.80
2019,10,29,12,04,3.80
2019,10,29,12,05,3.90
2019,10,29,12,06,3.90
2019,10,29,12,07,3.90
2019,10,29,12,08,4.00
2019,10,29,12,09,4.00
2019,10,29,12,10,4.10
2019,10,29,12,11,4.10
2019,10,29,12,12,4.20
2019,10,29,12,13,4.20
2019,10,29,12,14,4.20
2019,10,29,12,15,4.30
2019,10,29,12,16,4.40
2019,10,29,12,17,4.40
2019,10,29,12,18,4.50
2019,10,29,12,19,4.60
2019,10,29,12,20,4.70
2019,10,29,12,21,4.80
2019,10,29,12,22,4.80
2019,10,29,12,23,4.90
2019,10,29,12,24,5.00
2019,10,29,12,25,5.10
2019,10,29,12,26,5.20
2019,10,29,12,27,5.30
2019,10,29,12,28,5.30
2019,10,29,12,29,5.40
2019,10,29,12,30,5.50
2019,10,29,12,31,5.60
2019,10,29,12,32,5.60
2019,10,29,12,33,5.60
2019,10,29,12,34,5.60
2019,10,29,12,35,5.60
2019,10,29,12,36,5.60
2019,10,29,12,37,5.60
2019,10,29,12,38,5.70
2019,10,29,12,39,5.70
2019,10,29,12,40,5.70
2019,10,29,12,41,5.70
2019,10,29,12,42,5.70
2019,10,29,12,43,5.70
2019,10,29,12,44,5.80
2019,10,29,12,45,5.80
2019,10,29,12,46,5.80
2019,10,29,12,47,5.90
2019,10,29,12,48,5.90
2019,10,29,12,49,6.00
2019,10,29,12,50,6.00
2019,10,29,12,51,6.10
2019,10,29,12,52,6.10
2019,10,29,12,53,6.20
2019,10,29,12,54,6.30
2019,10,29,12,55,6.30
2019,10,29,12,56,6.40
2019,10,29,12,57,6.50
2019,10,29,12,58,6.60
2019,10,29,12,59,6.60
2019,10,29,13,00,6.70
2019,10,29,13,01,6.70
2019,10,29,13,02,6.80
2019,10,29,13,03,6.80
2019,10,29,13,04,6.90
2019,10,29,13,05,6.90
2019,10,29,13,06,7.00
2019,10,29,13,07,7.10
2019,10,29,13,08,7.10
2019,10,29,13,09,7.10
2019,10,29,13,10,7.20
2019,10,29,13,11,7.30
2019,10,29,13,12,7.40
2019,10,29,13,13,7.50
2019,10,29,13,14,7.60
2019,10,29,13,15,7.60
2019,10,29,13,16,7.70
2019,10,29,13,17,7.70
2019,10,29,13,18,7.70
2019,10,29,13,19,7.70
2019,10,29,13,20,7.80
2019,10,29,13,21,7.80
2019,10,29,13,22,7.80
2019,10,29,13,23,7.80
2019,10,29,13,24,7.80
2019,10,29,13,25,7.80
2019,10,29,13,26,7.80
2019,10,29,13,27,7.80
2019,10,29,13,28,7.90
2019,10,29,13,29,7.90
2019,10,29,13,30,7.90
2019,10,29,13,31,8.10
2019,10,29,13,32,8.10
2019,10,29,13,33,8.10
2019,10,29,13,34,8.20
2019,10,29,13,35,8.20
2019,10,29,13,36,8.20
2019,10,29,13,37,8.20
2019,10,29,13,38,8.30
2019,10,29,13,39,8.30
2019,10,29,13,40,8.40
2019,10,29,13,41,8.40
2019,10,29,13,42,8.60
2019,10,29,13,43,8.60
2019,10,29,13,44,8.70
2019,10,29,13,45,8.80
2019,10,29,13,46,8.80
2019,10,29,13,47,8.90
2019,10,29,13,48,8.90
2019,10,29,13,49,9.00
2019,10,29,13,50,9.10
2019,10,29,13,51,9.10
2019,10,29,13,52,9.20
2019,10,29,13,53,9.20
2019,10,29,13,54,9.30
2019,10,29,13,55,9.30
2019,10,29,13,56,9.40
2019,10,29,13,57,9.40
2019,10,29,13,58,9.60
2019,10,29,13,59,9.70
2019,10,29,14,00,9.70
2019,10,29,14,01,9.70
2019,10,29,14,02,9.70
2019,10,29,14,03,9.80
2019,10,29,14,04,9.80
2019,10,29,14,05,9.80
2019,10,29,14,06,9.80
2019,10,29,14,07,9.80
2019,10,29,14,08,9.80
2019,10,29,14,09,9.90
2019,10,29,14,10,9.90
2019,10,29,14,11,9.90
2019,10,29,14,12,10.00
2019,10,29,14,13,10.10
2019,10,29,14,14,10.10
2019,10,29,14,15,10.20
2019,10,29,14,16,10.20
2019,10,29,14,17,10.30
2019,10,29,14,18,10.30
2019,10,29,14,19,10.30
2019,10,29,14,20,10.30
2019,10,29,14,21,10.30
2019,10,29,14,22,10.40
2019,10,29,14,23,10.50
2019,10,29,14,24,10.60
2019,10,29,14,25,10.70
2019,10,29,14,26,10.80
2019,10,29,14,27,10.80
2019,10,29,14,28,10.80
2019,10,29,14,29,10.80
2019,10,29,14,30,10.80
2019,10,29,14,31,10.80
2019,10,29,14,32,10.80
2019,10,29,14,33,10.80
2019,10,29,14,34,10.90
2019,10,29,14,35,10.80
2019,10,29,14,36,10.80
2019,10,29,14,37,10.80
2019,10,29,14,38,10.80
2019,10,29,14,39,10.90
2019,10,29,14,40,10.90
2019,10,29,14,41,11.00
2019,10,29,14,42,11.10
2019,10,29,14,43,11.20
2019,10,29,14,44,11.20
2019,10,29,14,45,11.30
2019,10,29,14,46,11.40
2019,10,29,14,47,11.50
2019,10,29,14,48,11.60
2019,10,29,14,49,11.70
2019,10,29,14,50,11.80
2019,10,29,14,51,11.80
2019,10,29,14,52,11.90
2019,10,29,14,53,11.90
2019,10,29,14,54,12.00
2019,10,29,14,55,12.10
2019,10,29,14,56,12.10
2019,10,29,14,57,12.10
2019,10,29,14,58,12.20
2019,10,29,14,59,12.20
2019,10,29,15,00,12.30
2019,10,29,15,01,12.30
2019,10,29,15,02,12.20
2019,10,29,15,03,12.20
2019,10,29,15,04,12.10
2019,10,29,15,05,12.10
2019,10,29,15,06,12.00
2019,10,29,15,07,12.00
2019,10,29,15,08,12.00
2019,10,29,15,09,12.10
2019,10,29,15,10,12.10
2019,10,29,15,11,12.10
2019,10,29,15,12,12.10
2019,10,29,15,13,12.10
2019,10,29,15,14,12.10
2019,10,29,15,15,12.10
2019,10,29,15,16,12.10
2019,10,29,15,17,12.10
2019,10,29,15,18,12.10
2019,10,29,15,19,12.10
2019,10,29,15,20,12.10
2019,10,29,15,21,12.10
2019,10,29,15,22,12.10
2019,10,29,15,23,12.10
2019,10,29,15,24,12.10
2019,10,29,15,25,12.20
2019,10,29,15,26,12.20
2019,10,29,15,27,12.20
2019,10,29,15,28,12.20
2019,10,29,15,29,12.20
2019,10,29,15,30,12.20
2019,10,29,15,31,12.20
2019,10,29,15,32,12.10
2019,10,29,15,33,12.10
2019,10,29,15,34,12.00
2019,10,29,15,35,11.90
2019,10,29,15,36,11.90
2019,10,29,15,37,11.80
2019,10,29,15,38,11.80
2019,10,29,15,39,11.80
2019,10,29,15,40,11.70
2019,10,29,15,41,11.70
2019,10,29,15,42,11.60
2019,10,29,15,43,11.60
2019,10,29,15,44,11.70
2019,10,29,15,45,11.70
2019,10,29,15,46,11.70
2019,10,29,15,47,11.70
2019,10,29,15,48,11.70
2019,10,29,15,49,11.70
2019,10,29,15,50,11.70
2019,10,29,15,51,11.70
2019,10,29,15,52,11.70
2019,10,29,15,53,11.70
2019,10,29,15,54,11.70
2019,10,29,15,55,11.80
2019,10,29,15,56,11.80
2019,10,29,15,57,11.80
2019,10,29,15,58,11.90
2019,10,29,15,59,11.90
2019,10,29,16,00,12.00
2019,10,29,16,01,12.10
2019,10,29,16,02,12.20
2019,10,29,16,03,12.30
2019,10,29,16,04,12.30
2019,10,29,16,05,12.30
2019,10,29,16,06,12.40
2019,10,29,16,07,12.40
2019,10,29,16,08,12.30
2019,10,29,16,09,12.30
2019,10,29,16,10,12.30
2019,10,29,16,11,12.30
2019,10,29,16,12,12.30
2019,10,29,16,13,12.30
2019,10,29,16,14,12.30
2019,10,29,16,15,12.30
2019,10,29,16,16,12.30
2019,10,29,16,17,12.40
2019,10,29,16,18,12.30
2019,10,29,16,19,12.30
2019,10,29,16,20,12.30
2019,10,29,16,21,12.30
2019,10,29,16,22,12.30
2019,10,29,16,23,12.30
2019,10,29,16,24,12.30
2019,10,29,16,25,12.30
2019,10,29,16,26,12.30
2019,10,29,16,27,12.30
2019,10,29,16,28,12.20
2019,10,29,16,29,12.20
2019,10,29,16,30,12.10
2019,10,29,16,31,12.10
2019,10,29,16,32,11.90
2019,10,29,16,33,11.90
2019,10,29,16,34,11.90
2019,10,29,16,35,11.90
2019,10,29,16,36,11.80
2019,10,29,16,37,11.70
2019,10,29,16,38,11.60
2019,10,29,16,39,11.40
2019,10,29,16,40,11.40
2019,10,29,16,41,11.30
2019,10,29,16,42,11.30
2019,10,29,16,43,11.20
2019,10,29,16,44,11.20
2019,10,29,16,45,11.20
2019,10,29,16,46,11.20
2019,10,29,16,47,11.20
2019,10,29,16,48,11.20
2019,10,29,16,49,11.20
2019,10,29,16,50,11.20
2019,10,29,16,51,11.10
2019,10,29,16,52,11.10
2019,10,29,16,53,11.00
2019,10,29,16,54,10.90
2019,10,29,16,55,10.80
2019,10,29,16,56,10.80
2019,10,29,16,57,10.70
2019,10,29,16,58,10.70
2019,10,29,16,59,10.60
2019,10,29,17,00,10.50
2019,10,29,17,01,10.40
2019,10,29,17,02,10.30
2019,10,29,17,03,10.30
2019,10,29,17,04,10.20
2019,10,29,17,05,10.00
2019,10,29,17,06,9.90
2019,10,29,17,07,9.80
2019,10,29,17,08,9.70
2019,10,29,17,09,9.60
2019,10,29,17,10,9.40
2019,10,29,17,11,9.30
2019,10,29,17,12,9.20
2019,10,29,17,13,9.10
2019,10,29,17,14,9.10
2019,10,29,17,15,8.90
2019,10,29,17,16,8.80
2019,10,29,17,17,8.80
2019,10,29,17,18,8.70
2019,10,29,17,19,8.70
2019,10,29,17,20,8.70
2019,10,29,17,21,8.60
2019,10,29,17,22,8.60
2019,10,29,17,23,8.60
2019,10,29,17,24,8.50
2019,10,29,17,25,8.50
2019,10,29,17,26,8.50
2019,10,29,17,27,8.50
2019,10,29,17,28,8.50
2019,10,29,17,29,8.50
2019,10,29,17,30,8.50
2019,10,29,17,31,8.50
2019,10,29,17,32,8.50
2019,10,29,17,33,8.40
2019,10,29,17,34,8.40
2019,10,29,17,35,8.40
2019,10,29,17,36,8.30
2019,10,29,17,37,8.30
2019,10,29,17,38,8.20
2019,10,29,17,39,8.20
2019,10,29,17,40,8.10
2019,10,29,17,41,8.10
2019,10,29,17,42,8.10
2019,10,29,17,43,8.00
2019,10,29,17,44,7.90
2019,10,29,17,45,7.90
2019,10,29,17,46,7.80
2019,10,29,17,47,7.80
2019,10,29,17,48,7.70
2019,10,29,17,49,7.70
2019,10,29,17,50,7.60
2019,10,29,17,51,7.50
2019,10,29,17,52,7.40
2019,10,29,17,53,7.40
2019,10,29,17,54,7.30
2019,10,29,17,55,7.30
2019,10,29,17,56,7.20
2019,10,29,17,57,7.20
2019,10,29,17,58,7.10